Weather History for Patuxent River, MD

Change the Weather History Date:

Friday, October 26, 2012

  Actual Average Record
Temperature  
Mean Temperature 67 °F -  
Max Temperature 73 °F 64 °F 82 °F (1978)
Min Temperature 62 °F 47 °F 30 °F (2013)
Cooling Degree Days 2    
Growing Degree Days 17 (Base 50)    
Moisture  
Dew Point 60 °F    
Average Humidity 82    
Maximum Humidity 94    
Minimum Humidity 66    
Precipitation  
Precipitation 0.00 in - - ()
Sea Level Pressure  
Sea Level Pressure 30.12 in    
Wind  
Wind Speed 7 mph (NE)    
Max Wind Speed 10 mph    
Max Gust Speed -    
Visibility 10 miles    
Events      
Averages and records for this station are not official NWS values.
T = Trace of Precipitation, MM = Missing Value Source: NWS Daily Summary

Daily Weather History Graph

Daily Weather History Graph

Search for Another Location

Airport:

Trip Planner

Search our weather history database for the weather conditions in past years. The results will help you decide how hot, cold, wet, or windy it might be!

Date:

Astronomy

Oct. 26, 2012 Rise Set
Actual Time 7:25 AM EDT 6:12 PM EDT
Civil Twilight 6:58 AM EDT 6:39 PM EDT
Nautical Twilight 6:27 AM EDT 7:10 PM EDT
Astronomical Twilight 5:57 AM EDT 7:41 PM EDT
Moon 4:25 PM EDT (10/26) 4:22 AM EDT (10/26)
Length of Visible Light 11h 40m
Length of Day
10h 46m
Waxing Gibbous, 91% of the Moon is Illuminated
Oct 26
Waxing Gibbous
Oct 29
Full
Nov 6
Last Quarter
Nov 13
New
Nov 20
First Quarter

Hourly Weather History & Observations

Time (EDT) Temp. Dew Point Humidity Pressure Visibility Wind Dir Wind Speed Gust Speed Precip Events Conditions
12:29 AM 64.4 °F 60.8 °F 88% 30.16 in 10.0 mi East 6.9 mph - N/A   Overcast
12:52 AM 64.0 °F 60.1 °F 87% 30.16 in 9.0 mi East 6.9 mph - N/A   Overcast
1:31 AM 64.4 °F 60.8 °F 88% 30.16 in 8.0 mi East 6.9 mph - N/A   Overcast
1:52 AM 64.0 °F 61.0 °F 90% 30.16 in 9.0 mi ESE 8.1 mph - N/A   Overcast
2:52 AM 64.0 °F 61.0 °F 90% 30.15 in 9.0 mi NE 3.5 mph - N/A   Overcast
3:09 AM 64.4 °F 60.8 °F 88% 30.15 in 10.0 mi ENE 5.8 mph - N/A   Overcast
3:52 AM 64.0 °F 60.1 °F 87% 30.15 in 10.0 mi NE 4.6 mph - N/A   Overcast
4:52 AM 63.0 °F 60.1 °F 90% 30.15 in 10.0 mi NE 5.8 mph - N/A   Overcast
5:22 AM 62.6 °F 60.8 °F 94% 30.15 in 8.0 mi NE 5.8 mph - N/A   Overcast
5:52 AM 63.0 °F 60.1 °F 90% 30.15 in 10.0 mi ENE 5.8 mph - N/A   Overcast
5:56 AM 62.6 °F 59.0 °F 88% 30.15 in 10.0 mi ENE 5.8 mph - N/A   Overcast
6:52 AM 62.1 °F 59.0 °F 90% 30.15 in 10.0 mi NNE 4.6 mph - N/A   Overcast
7:52 AM 62.1 °F 59.0 °F 90% 30.16 in 10.0 mi NNE 4.6 mph - N/A   Overcast
8:52 AM 63.0 °F 59.0 °F 87% 30.17 in 10.0 mi NNE 9.2 mph - N/A   Overcast
9:52 AM 63.0 °F 59.0 °F 87% 30.20 in 10.0 mi North 10.4 mph - N/A   Overcast
10:52 AM 66.0 °F 60.1 °F 81% 30.19 in 10.0 mi NNE 10.4 mph - N/A   Mostly Cloudy
11:52 AM 70.0 °F 60.1 °F 71% 30.16 in 10.0 mi NNE 8.1 mph - N/A   Mostly Cloudy
12:52 PM 70.0 °F 61.0 °F 73% 30.13 in 10.0 mi East 10.4 mph - N/A   Mostly Cloudy
1:52 PM 70.0 °F 60.1 °F 71% 30.10 in 10.0 mi ENE 8.1 mph - N/A   Mostly Cloudy
2:52 PM 72.0 °F 60.1 °F 66% 30.08 in 10.0 mi Variable 3.5 mph - N/A   Mostly Cloudy
3:52 PM 72.0 °F 60.1 °F 66% 30.06 in 10.0 mi North 6.9 mph - N/A   Mostly Cloudy
4:52 PM 71.1 °F 60.1 °F 68% 30.06 in 10.0 mi North 5.8 mph - N/A   Mostly Cloudy
5:52 PM 68.0 °F 59.0 °F 73% 30.06 in 10.0 mi North 6.9 mph - N/A   Overcast
6:52 PM 66.0 °F 59.0 °F 78% 30.07 in 10.0 mi North 5.8 mph - N/A   Overcast
7:52 PM 66.0 °F 60.1 °F 81% 30.08 in 10.0 mi NNE 4.6 mph - N/A   Overcast
8:52 PM 66.0 °F 59.0 °F 78% 30.07 in 10.0 mi ENE 9.2 mph - N/A   Overcast
9:52 PM 64.9 °F 59.0 °F 81% 30.07 in 10.0 mi NE 8.1 mph - N/A   Overcast
10:52 PM 64.0 °F 59.0 °F 84% 30.05 in 10.0 mi NE 10.4 mph - N/A   Overcast
11:52 PM 63.0 °F 59.0 °F 87% 30.03 in 10.0 mi NE 8.1 mph - N/A   Clear